Weather History for Cushing, OK

Change the Weather History Date:

Friday, October 21, 2011

  Actual Average Record
Temperature  
Mean Temperature 57 °F -  
Max Temperature 77 °F 70 °F 90 °F (1979)
Min Temperature 37 °F 46 °F 29 °F (1976)
Degree Days  
Heating Degree Days 8    
Growing Degree Days 7 (Base 50)    
Moisture  
Dew Point 38 °F    
Average Humidity 54    
Maximum Humidity 87    
Minimum Humidity 24    
Precipitation  
Precipitation 0.00 in - - ()
Sea Level Pressure  
Sea Level Pressure 30.12 in    
Wind  
Wind Speed 1 mph (South)    
Max Wind Speed 9 mph    
Max Gust Speed -    
Visibility 10 miles    
Events      
Averages and records for this station are not official NWS values.
T = Trace of Precipitation, MM = Missing Value Source: NWS Daily Summary

Daily Weather History Graph

Daily Weather History Graph

Search for Another Location

Airport:

Trip Planner

Search our weather history database for the weather conditions in past years. The results will help you decide how hot, cold, wet, or windy it might be!

Date:

Astronomy

Oct. 21, 2011 Rise Set
Actual Time 7:38 AM CDT 6:43 PM CDT
Civil Twilight 7:12 AM CDT 7:09 PM CDT
Nautical Twilight 6:43 AM CDT 7:39 PM CDT
Astronomical Twilight 6:13 AM CDT 8:09 PM CDT
Moon 1:41 AM CDT (10/21) 3:19 PM CDT (10/21)
Length of Visible Light 11h 56m
Length of Day
11h 05m
Waning Crescent, 33% of the Moon is Illuminated
Oct 21
Waning Crescent
Oct 26
New
Nov 2
First Quarter
Nov 10
Full
Nov 18
Last Quarter

Hourly Weather History & Observations

Time (CDT) Temp. Dew Point Humidity Pressure Visibility Wind Dir Wind Speed Gust Speed Precip Events Conditions
12:15 AM 50.0 °F 33.8 °F 54% 30.12 in 10.0 mi Calm Calm - N/A   Clear
12:35 AM 42.8 °F 33.8 °F 70% 30.11 in 10.0 mi Calm Calm - N/A   Clear
1:35 AM 44.6 °F 33.8 °F 66% 30.11 in 10.0 mi Calm Calm - N/A   Clear
1:55 AM 42.8 °F 33.8 °F 70% 30.12 in 10.0 mi Calm Calm - N/A   Clear
2:15 AM 44.6 °F 33.8 °F 66% 30.12 in 10.0 mi Calm Calm - N/A   Clear
2:35 AM 44.6 °F 33.8 °F 66% 30.12 in 10.0 mi Calm Calm - N/A   Clear
2:55 AM 41.0 °F 33.8 °F 76% 30.13 in 10.0 mi Calm Calm - N/A   Clear
3:15 AM 42.8 °F 33.8 °F 70% 30.12 in 10.0 mi Calm Calm - N/A   Clear
3:35 AM 44.6 °F 33.8 °F 66% 30.12 in 10.0 mi Calm Calm - N/A   Clear
4:15 AM 39.2 °F 33.8 °F 81% 30.12 in 10.0 mi Calm Calm - N/A   Clear
4:35 AM 41.0 °F 33.8 °F 76% 30.12 in 10.0 mi Calm Calm - N/A   Clear
4:55 AM 37.4 °F 32.0 °F 81% 30.12 in 10.0 mi Calm Calm - N/A   Clear
5:35 AM 37.4 °F 33.8 °F 87% 30.12 in 10.0 mi Calm Calm - N/A   Clear
5:55 AM 39.2 °F 33.8 °F 81% 30.13 in 10.0 mi Calm Calm - N/A   Clear
6:15 AM 37.4 °F 33.8 °F 87% 30.13 in 10.0 mi Calm Calm - N/A   Clear
6:35 AM 41.0 °F 33.8 °F 76% 30.14 in 10.0 mi Calm Calm - N/A   Clear
7:15 AM 42.8 °F 33.8 °F 70% 30.15 in 10.0 mi Calm Calm - N/A   Clear
7:35 AM 42.8 °F 33.8 °F 70% 30.15 in 10.0 mi Calm Calm - N/A   Clear
7:55 AM 42.8 °F 33.8 °F 70% 30.15 in 10.0 mi Calm Calm - N/A   Clear
8:15 AM 42.8 °F 33.8 °F 70% 30.16 in 10.0 mi Calm Calm - N/A   Clear
8:35 AM 44.6 °F 37.4 °F 76% 30.17 in 10.0 mi Calm Calm - N/A   Clear
8:55 AM 48.2 °F 35.6 °F 62% 30.18 in 10.0 mi Calm Calm - N/A   Clear
9:15 AM 50.0 °F 35.6 °F 58% 30.18 in 10.0 mi Calm Calm - N/A   Clear
9:35 AM 51.8 °F 37.4 °F 58% 30.18 in 10.0 mi Calm Calm - N/A   Clear
9:55 AM 55.4 °F 37.4 °F 51% 30.18 in 10.0 mi Calm Calm - N/A   Clear
10:15 AM 60.8 °F 35.6 °F 39% 30.18 in 10.0 mi SSE 3.5 mph - N/A   Clear
10:35 AM 62.6 °F 35.6 °F 37% 30.18 in 10.0 mi South 6.9 mph - N/A   Clear
10:55 AM 64.4 °F 35.6 °F 34% 30.18 in 10.0 mi South 5.8 mph - N/A   Clear
11:15 AM 66.2 °F 35.6 °F 32% 30.18 in 10.0 mi South 6.9 mph - N/A   Clear
11:35 AM 68.0 °F 35.6 °F 30% 30.18 in 10.0 mi South 6.9 mph - N/A   Clear
11:55 AM 69.8 °F 35.6 °F 28% 30.18 in 10.0 mi South 9.2 mph - N/A   Clear
12:15 PM 69.8 °F 37.4 °F 31% 30.17 in 10.0 mi South 4.6 mph - N/A   Clear
12:35 PM 71.6 °F 37.4 °F 29% 30.16 in 10.0 mi Calm Calm - N/A   Clear
12:55 PM 71.6 °F 37.4 °F 29% 30.16 in 10.0 mi Calm Calm - N/A   Clear
1:15 PM 73.4 °F 37.4 °F 27% 30.15 in 10.0 mi Calm Calm - N/A   Clear
1:35 PM 73.4 °F 37.4 °F 27% 30.13 in 10.0 mi Calm Calm - N/A   Clear
1:55 PM 73.4 °F 37.4 °F 27% 30.12 in 10.0 mi Calm Calm - N/A   Clear
2:15 PM 77.0 °F 37.4 °F 24% 30.12 in 10.0 mi Calm Calm - N/A   Clear
2:35 PM 77.0 °F 37.4 °F 24% 30.11 in 10.0 mi SSE 4.6 mph - N/A   Clear
2:55 PM 77.0 °F 37.4 °F 24% 30.10 in 10.0 mi Calm Calm - N/A   Clear
3:15 PM 77.0 °F 37.4 °F 24% 30.09 in 10.0 mi WSW 3.5 mph - N/A   Clear
3:35 PM 77.0 °F 37.4 °F 24% 30.10 in 10.0 mi ESE 4.6 mph - N/A   Clear
3:55 PM 77.0 °F 37.4 °F 24% 30.09 in 10.0 mi Calm Calm - N/A   Clear
4:15 PM 77.0 °F 39.2 °F 26% 30.09 in 10.0 mi SSW 5.8 mph - N/A   Clear
4:35 PM 77.0 °F 39.2 °F 26% 30.09 in 10.0 mi Calm Calm - N/A   Clear
4:55 PM 77.0 °F 39.2 °F 26% 30.08 in 10.0 mi Calm Calm - N/A   Clear
5:35 PM 77.0 °F 41.0 °F 28% 30.08 in 10.0 mi SSW 3.5 mph - N/A   Clear
5:55 PM 75.2 °F 41.0 °F 29% 30.08 in 10.0 mi SSW 3.5 mph - N/A   Clear
6:15 PM 73.4 °F 42.8 °F 33% 30.08 in 10.0 mi Calm Calm - N/A   Clear
6:35 PM 71.6 °F 42.8 °F 35% 30.08 in 10.0 mi Calm Calm - N/A   Clear
6:55 PM 68.0 °F 42.8 °F 40% 30.08 in 10.0 mi Calm Calm - N/A   Clear
7:15 PM 64.4 °F 44.6 °F 49% 30.09 in 10.0 mi Calm Calm - N/A   Clear
7:35 PM 62.6 °F 44.6 °F 52% 30.09 in 10.0 mi Calm Calm - N/A   Clear
7:55 PM 59.0 °F 44.6 °F 59% 30.09 in 10.0 mi Calm Calm - N/A   Clear
8:15 PM 53.6 °F 44.6 °F 72% 30.09 in 10.0 mi Calm Calm - N/A   Clear
8:35 PM 53.6 °F 44.6 °F 72% 30.09 in 10.0 mi Calm Calm - N/A   Clear
8:55 PM 51.8 °F 44.6 °F 76% 30.09 in 10.0 mi Calm Calm - N/A   Clear
9:15 PM 51.8 °F 44.6 °F 76% 30.10 in 10.0 mi Calm Calm - N/A   Clear
9:55 PM 50.0 °F 42.8 °F 76% 30.10 in 10.0 mi Calm Calm - N/A   Clear
10:15 PM 50.0 °F 44.6 °F 82% 30.10 in 10.0 mi Calm Calm - N/A   Clear
10:35 PM 53.6 °F 44.6 °F 72% 30.11 in 10.0 mi Calm Calm - N/A   Clear
10:55 PM 51.8 °F 44.6 °F 76% 30.11 in 10.0 mi Calm Calm - N/A   Clear
11:15 PM 51.8 °F 42.8 °F 71% 30.11 in 10.0 mi Calm Calm - N/A   Clear
11:35 PM 53.6 °F 44.6 °F 72% 30.11 in 10.0 mi Calm Calm - N/A   Clear
11:55 PM 50.0 °F 42.8 °F 76% 30.10 in 10.0 mi Calm Calm - N/A   Clear